User: anonymous   Login
Location: Cincinnati Observatory Center
(39.1389°N, 84.4225°W)
Time: 01:34:09
(UTC-04:00)
Language:

COSMOS 2428 - Orbit

View from above orbital plane
View from above orbital plane
View from above satellite
View from above satellite

Ground track
Ground track

The orbit data is extracted from the following two-line orbital elements,

1 31792U 07029A   14303.59841557  .00000303  00000-0  18986-3 0  1314
2 31792 070.9732 265.8405 0011860 279.3690 202.1790 14.12458210378438
Epoch (UTC): 30 October 2014 14:21:43
Eccentricity: 0.0011860
inclination: 70.9732°
perigee height: 842 km
apogee height: 859 km
right ascension of ascending node: 265.8405°
argument of perigee: 279.3690°
revolutions per day: 14.12458210
mean anomaly at epoch: 202.1790°
orbit number at epoch: 37843

The dashed part of the orbit path shows where the satellite is in the earth's shadow,  

DLR